Tracking 35237 objects as of 5-Sep-2026
HD Live streaming from Space Station
objects crossing your sky now

COSMOS 1814

Track COSMOS 1814 now!
10-day predictions
COSMOS 1814 is classified as:


NORAD ID: 17303
Int'l Code: 1987-006A
Launch date: January 21, 1987
Source: Commonwealth of Independent States (former USSR) (CIS)
Launch site: PLESETSK MISSILE AND SPACE COMPLEX (PKMTR)
Your satellite tracking list
Your tracking list is empty




NASA's NSSDC Master Catalog

Two Line Element Set (TLE):
1 17303U 87006A   26248.05993193  .00000030  00000-0  19284-4 0  9997
2 17303  74.0543 111.1677 0024863 192.3883 167.6662 14.36023299 73700
Source of the keplerian elements: AFSPC